Location: North Evanston
(42.0634°N, 87.6976°W)
Time: 19:47:24
(UTC+00:00)

Vanguard 3 - Pass Details

Date: 13 May 2026
Orbit: 507 x 3205 km, 33.4° (Epoch: 31 May)

Event Time Altitude Azimuth Distance (km) Brightness Sun altitude
Rises 16:56:08 0° 193° (SSW) 6,226 11.9 64.1°
Reaches altitude 10° 17:01:21 10° 180° (S) 5,570 11.9 64.5°
Maximum altitude 17:13:41 23° 136° (SE) 4,999 11.9 65.4°
Drops below altitude 10° 17:26:49 10° 93° (E) 6,033 11.8 66.1°
Sets 17:32:41 0° 81° (E) 6,853 11.9 66.3°
